Weather in Frankfurt

Germany     52˚20′30″N   14˚33′15″E
temp.,
°C
wind,
m/s
gust,
m/s
humid.,
%
clouds,
%
prec.,
mm/h
press.,
hPa
HPBL,
m
3 december, thu
thu301:00−2˚se358620 0.0 1014156
04:00−2˚se388067 0.0 1012306
07:00−1˚sse4106684 0.0 1010573
10:00s5966100 0.0 1010716
13:00+1˚sse5878100 0.1 1007752
16:00sse4107799 0.0 1005510
19:00−1˚s4118153 0.0 1004385
22:00−2˚sse410830 0.0 1003326
4 december, fri
fri401:00−2˚se411800 0.0 1001384
04:00−1˚se411870 0.0 998286
07:00se410930 0.0 997252
10:00+3˚se4108615 0.0 996384
13:00+6˚ese4108048 0.0 995434
16:00+4˚ese41188100 0.0 994299
19:00+2˚se4119195 0.0 994267
22:00+1˚se379099 0.0 995143
5 december, sat
sat501:00+1˚ese378999 0.0 996134
04:00+1˚ese359087 0.0 996104
07:00+2˚ese499190 0.0 996189
10:00+5˚se4118215 0.0 997429
13:00+9˚sse4107328 0.0 999787
16:00+6˚ese3884100 0.0 999152
19:00+6˚ese4118463 0.0 999254
22:00+6˚se4158661 0.0 1000535
6 december, sun
sun601:00+6˚se4118680 0.0 1001310
04:00+5˚ese3791100 0.0 1002141
07:00+6˚ese4990100 0.0 1003204
10:00+7˚ese3884100 0.0 1004233
13:00+10˚ese41174100 0.0 1004567
16:00+9˚ese6157394 0.0 1004550
19:00+9˚ese7157580 0.0 1003766
22:00+8˚ese7157579 0.0 1003804
7 december, mon
mon701:00+7˚ese6157777 0.0 1002688
04:00+6˚ese6148041 0.0 1002601
07:00+6˚ese6148070 0.7 1002585
10:00+7˚ese71575100 0.3 1002697
13:00+9˚se8147099 0.3 10031099
16:00+6˚s4108567 0.0 1005364
19:00+4˚s4127733 0.0 1009449
22:00+3˚sse26900 0.0 1010133